Location: Riverside Cemetery
(38.3047°N, 99.7773°W)
Time: 06:52:23
(UTC+00:00)

Resurs 01 Rocket - Pass Details

Date: 19 September 2020
Orbit: 633 x 645 km, 98.0° (Epoch: 19 October)

Event Time Altitude Azimuth Distance (km) Brightness Sun altitude
Exits shadow 03:27:08 26° 343° (NNW) 1,276 3.5 -31.8°
Drops below altitude 10° 03:29:06 10° 346° (NNW) 2,048 4.7 -32.1°
Sets 03:31:19 0° 347° (NNW) 2,961 5.6 -32.5°
